Regional Weather Roundup
Issued by NWS Upton, NY

Current Version | Previous Version | Text Only | Print | Product List | Glossary On
Versions: 1 2 3 4 5 6 7 8 9 10 11 12 13 14 15 16 17 18 19 20 21 22 23 24 25 26 27 28 29 30 31 32 33 34 35 36 37 38 39 40 41 42 43 44 45 46 47 48 49 50
000 ASUS41 KOKX 200405 RWROKX REGIONAL WEATHER ROUNDUP NATIONAL WEATHER SERVICE NEW YORK NY 1200 AM EDT SAT SEP 20 2014 NOTE: "FAIR" INDICATES FEW OR NO CLOUDS BELOW 12,000 FEET WITH NO SIGNIFICANT WEATHER AND/OR OBSTRUCTIONS TO VISIBILITY. NYZ071-072-176-178-NJZ106-104-200500- NEW YORK CITY METRO AREA CITY SKY/WX TMP DP RH WIND PRES REMARKS CENTRAL PARK CLEAR 60 46 59 VRB3 30.38F LAGUARDIA APRT PTCLDY 60 47 61 SE13 30.35F KENNEDY INTL MOCLDY 62 49 62 E9 30.36F NEWARK/LIBERTY MOCLDY 62 51 67 SE6 30.35F BRNX BOT. GARD N/A 57 46 67 S7 30.38S TETERBORO PTCLDY 60 47 61 SE5 30.35F $$ NYZ177-179-078>081-200500- LONG ISLAND NEW YORK CITY SKY/WX TMP DP RH WIND PRES REMARKS FARMINGDALE MOCLDY 54 45 71 NE3 30.38F ISLIP PTCLDY 50 43 77 CALM 30.36F SHIRLEY PTCLDY 47 42 83 CALM 30.38F WESTHAMPTON PTCLDY 58 48 69 SE6 30.39F MONTAUK POINT N/A 55 45 68 E3 30.41F $$ NYZ052-065-067-200500- HUDSON VALLEY CITY SKY/WX TMP DP RH WIND PRES REMARKS WHITE PLAINS PTCLDY 53 46 77 E7 30.35F NEWBURGH CLEAR 54 48 82 S7 30.35F MONTGOMERY CLEAR 45 43 93 CALM 30.34F POUGHKEEPSIE CLEAR 53 45 74 SE3 30.34F ALBANY PTCLDY 52 40 63 S13 30.31F $$ NJZ001-105-106-008-010-013-015-019>022-104-200500- NEW JERSEY CITY SKY/WX TMP DP RH WIND PRES REMARKS NEWARK/LIBERTY MOCLDY 62 51 67 SE6 30.35F TETERBORO PTCLDY 60 47 61 SE5 30.35F CALDWELL CLOUDY 58 47 66 SE3 30.36F MORRISTOWN CLOUDY 59 50 72 CALM 30.36F SOMERVILLE CLEAR 49 46 90 NW3 30.33F LINDEN FAIR 66 54 66 SE5 30.37F SUSSEX CLEAR 50 47 89 CALM 30.35F ANDOVER N/A 52 49 89 CALM 30.35F TRENTON PTCLDY 55 51 86 E5 30.34F MILLVILLE CLEAR 56 54 93 CALM 30.33S ATLANTIC CITY CLOUDY 63 57 81 E8 30.33S WRIGHTSTOWN CLEAR 53 52 95 E5 30.32F TOMS RIVER MOCLDY 61 54 77 CALM 30.35F BELMAR MOCLDY 61 50 67 E9 30.35F $$ PAZ047>061-062-071-200500- EASTERN PENNSYLVANIA CITY SKY/WX TMP DP RH WIND PRES REMARKS PHILADELPHIA PTCLDY 59 54 83 E7 30.34F ALLENTOWN CLEAR 57 50 77 SE6 30.34F SCRANTON PTCLDY 56 49 77 VRB5 30.27F $$ CTZ002-004>006-009-010-012-RIZ004-006-007-MAZ004-011-015-200500- SOUTHERN NEW ENGLAND IN CT CITY SKY/WX TMP DP RH WIND PRES REMARKS BRADLEY INTL CLEAR 43 38 82 CALM 30.38F HARTFORD CLEAR 50 41 71 S7 30.39F DANBURY CLEAR 49 44 83 SE3 30.38F WTRBRY/OXFORD CLEAR 45 37 76 CALM 30.39F BRIDGEPORT PTCLDY 59 47 64 SE7 30.37F MERIDEN CLEAR 43 40 89 CALM 30.39F NEW HAVEN PTCLDY 60 46 59 SE8G17 30.38F CHESTER FAIR 45 43 93 CALM 30.39F GROTON CLEAR 47 42 83 NE5 30.39F WILLIMANTIC CLEAR 42 39 89 CALM 30.41F IN RI CITY SKY/WX TMP DP RH WIND PRES REMARKS PROVIDENCE CLEAR 45 38 76 SE3 30.42F BLOCK ISLAND CLEAR 54 39 58 SE8 30.40F WESTERLY CLEAR 44 40 85 N5 30.41F IN MA CITY SKY/WX TMP DP RH WIND PRES REMARKS BOSTON CLEAR 50 38 63 S8 30.42F WORCESTER CLEAR 42 34 73 S7 30.39F WESTFIELD CLEAR 41 38 89 CALM 30.38F PROVINCETOWN CLEAR 39 30 70 SE5 30.42F NANTUCKET CLEAR 47 37 68 SE8 30.42F $$ ANZ330-335-338-340-345-350-353-355-200500- COASTAL MARINE OBSERVATIONS STATION/POSITION TIME SKY/WX TEMP WIND PRES VSBY WAVE AIR SEA DIR/SP/G HT/PER (UTC) (F) (DEG/KT/KT) (MB) (MI) (FT/S) NY HARB ENTRANCE 0400 63 70 110/ 12/ 16 1028.5 3/ 6 4S FIRE IS 0400 69 N/A 3/ 8 20S FIRE ISLAND 0400 63 67 110/ 8/ 12 1029.0 4/ 6 23SW MTP 0400 N/A 4/ 5 HUDSON CANYON 0400 65 72 100/ 14/ 16 1027.5 5/ 7 EXECUTION ROCKS 0400 61 70 120/ 16/ 19 N/A WESTERN LI SOUND 0400 60 130/ 10/ 12 N/A 1 CENTRAL LI SOUND 0300 60 70 120/ 14/ 17 N/A 1/ 3 EASTERN LI SOUND 0300 59 67 130/ 14/ 17 N/A ROBBINS REEF 0300 62 110/ 15/ 17 1026.7 $$ >>>>>>>>>>>>>>>>>>>>>>>>>>>> KEY <<<<<<<<<<<<<<<<<<<<<<<<<<< > < > SKY/WX - SKY CONDITION/PRESENT WEATHER < > TMP - TEMPERATURE IN FAHRENHEIT < > DP - DEWPOINT IN FAHRENHEIT < > RH - RELATIVE HUMIDITY IN PERCENT < > WIND - DIRECTION AND SPEED IN MPH < > PRES - MEAN SEA LEVEL PRESSURE IN INCHES OF HG < > WCI - WIND CHILL INDEX < > VSB - VISIBILITY IN MILES < > HX - HEAT INDEX < > TC - TEMPERATURE IN CELSIUS < > VRB - VARIABLE WIND DIRECTION < > < >>>>>>>>>>>>>>>>>>>>>>>>>>>> KEY <<<<<<<<<<<<<<<<<<<<<<<<<<<

USA.gov is the U.S. government's official web portal to all federal, state and local government web resources and services.